Location: Asheville, NC
(35.6000°N, 82.5500°W)
Time: 20:08:35

Hubble Space Telescope - Pass Details

Date: 15 March 2018
Orbit: 537 x 541 km, 28.5° (Epoch: 17 March)

Event Time Altitude Azimuth Distance (km) Brightness Sun altitude
Rises 21:27:08 0° 258° (WSW) 2,675 5.4 -22.8°
Reaches altitude 10° 21:29:38 10° 246° (WSW) 1,783 4.1 -23.3°
Enters shadow 21:32:32 26° 203° (SSW) 1,064 2.3 -23.9°
